W4BJB-13 Weather Reports


Display with metric or nautical units.
time (UTC)temp
F
wind
direction
speed
MPH
gust
MPH
rain 1hr
in
rain 24hr
in
rain mn
in
humidity
%
barometer
mb
20260510204005 77 13 0.0 1.0 0.00 0.00 0.00 61 988.2
20260510203504 78 29 0.0 1.0 0.00 0.00 0.00 59 988.2
20260510203005 78 334 0.0 1.0 0.00 0.00 0.00 60 988.3
20260510202505 79 25 0.0 2.0 0.00 0.00 0.00 60 988.2
20260510202005 80 14 1.0 1.0 0.00 0.00 0.00 56 988.2
20260510201005 81 42 0.0 2.0 0.00 0.00 0.00 51 988.2
20260510200505 82 36 0.0 1.0 0.00 0.00 0.00 49 988.2
20260510200005 83 326 0.0 1.0 0.00 0.00 0.00 48 988.2
20260510195504 83 16 0.0 3.0 0.00 0.00 0.00 48 988.3
20260510194504 84 262 1.0 2.0 0.00 0.00 0.00 40 988.3
20260510194005 84 274 1.0 2.0 0.00 0.00 0.00 42 988.3
20260510193504 83 315 0.0 2.0 0.00 0.00 0.00 43 988.3
20260510193006 83 274 1.0 3.0 0.00 0.00 0.00 42 988.3
20260510191505 84 203 2.0 3.0 0.00 0.00 0.00 43 988.3
20260510191005 84 213 2.0 3.0 0.00 0.00 0.00 40 988.3
20260510190005 83 211 1.0 2.0 0.00 0.00 0.00 43 988.3
20260510185504 83 191 2.0 3.0 0.00 0.00 0.00 43 988.4
20260510185005 84 296 2.0 3.0 0.00 0.00 0.00 42 988.4
20260510184505 85 337 1.0 2.0 0.00 0.00 0.00 41 988.5
20260510184005 85 215 1.0 2.0 0.00 0.00 0.00 39 988.5
20260510183505 84 300 1.0 3.0 0.00 0.00 0.00 40 988.5
20260510183004 82 270 0.0 1.0 0.00 0.00 0.00 43 988.5
20260510182505 82 258 1.0 5.0 0.00 0.00 0.00 42 988.6
20260510182005 82 269 3.0 5.0 0.00 0.00 0.00 41 988.7
20260510181505 82 180 1.0 3.0 0.00 0.00 0.00 42 988.8
20260510180505 81 314 1.0 3.0 0.00 0.00 0.00 43 988.9
20260510180005 81 350 1.0 3.0 0.00 0.00 0.00 43 989.0
20260510175505 80 239 2.0 5.0 0.00 0.00 0.00 40 989.1
20260510175005 80 246 1.0 5.0 0.00 0.00 0.00 42 989.1
20260510174504 80 332 2.0 5.0 0.00 0.00 0.00 41 989.1
20260510174004 80 289 2.0 3.0 0.00 0.00 0.00 44 989.1
20260510173505 80 214 2.0 5.0 0.00 0.00 0.00 49 989.1
20260510173005 80 336 1.0 5.0 0.00 0.00 0.00 43 989.1
20260510172505 79 292 0.0 3.0 0.00 0.00 0.00 47 989.1
20260510172005 79 246 1.0 3.0 0.00 0.00 0.00 47 989.1
20260510171505 79 267 2.0 5.0 0.00 0.00 0.00 44 989.1
20260510170004 79 173 0.0 2.0 0.00 0.00 0.00 46 989.2
20260510165505 78 330 1.0 2.0 0.00 0.00 0.00 46 989.3
20260510165005 78 294 1.0 5.0 0.00 0.00 0.00 44 989.3
20260510164505 78 292 0.0 1.0 0.00 0.00 0.00 42 989.2
20260510164005 78 16 0.0 6.0 0.00 0.00 0.00 46 989.2
20260510162504 78 156 0.0 2.0 0.00 0.00 0.00 56 989.2
20260510162005 77 229 1.0 2.0 0.00 0.00 0.00 57 989.2
20260510161505 77 187 0.0 2.0 0.00 0.00 0.00 54 989.2
20260510161005 77 8 0.0 3.0 0.00 0.00 0.00 57 989.1
20260510160505 76 297 1.0 3.0 0.00 0.00 0.00 60 989.2
20260510160005 75 270 0.0 2.0 0.00 0.00 0.00 63 989.2
20260510155505 75 232 1.0 2.0 0.00 0.00 0.00 68 989.2
20260510155005 74 233 0.0 2.0 0.00 0.00 0.00 68 989.3
20260510154504 74 160 1.0 3.0 0.00 0.00 0.00 68 989.3
20260510154004 73 247 1.0 5.0 0.00 0.00 0.00 70 989.3
20260510153504 73 291 2.0 5.0 0.00 0.00 0.00 73 989.3
20260510153004 73 193 0.0 3.0 0.00 0.00 0.00 74 989.4
20260510152504 72 311 1.0 3.0 0.00 0.00 0.00 74 989.4
20260510151004 71 333 1.0 3.0 0.00 0.00 0.00 81 989.4
20260510150504 71 314 2.0 3.0 0.00 0.00 0.00 82 989.5
20260510150004 70 308 2.0 3.0 0.00 0.00 0.00 83 989.5
20260510145504 70 25 0.0 2.0 0.00 0.00 0.00 84 989.4
20260510145004 69 324 2.0 3.0 0.00 0.00 0.00 84 989.4
20260510144504 69 330 1.0 5.0 0.00 0.00 0.00 85 989.4
20260510143004 67 253 1.0 3.0 0.00 0.00 0.00 88 989.5
20260510142504 67 271 1.0 5.0 0.00 0.00 0.00 89 989.5
20260510141504 66 337 2.0 5.0 0.00 0.00 0.00 92 989.5
20260510141004 65 316 1.0 6.0 0.00 0.00 0.00 93 989.5
20260510140504 65 271 1.0 2.0 0.00 0.00 0.00 96 989.4
20260510140004 64 176 1.0 2.0 0.00 0.00 0.00 97 989.4
20260510135503 64 311 2.0 3.0 0.00 0.00 0.00 98 989.4
20260510135005 63 101 1.0 3.0 0.00 0.00 0.00 98 989.3
20260510134503 62 358 1.0 3.0 0.00 0.00 0.00 98 989.3
20260510134004 61 41 2.0 3.0 0.00 0.00 0.00 98 989.3
20260510133504 61 193 1.0 2.0 0.00 0.00 0.00 98 989.3
20260510133004 60 353 1.0 2.0 0.00 0.00 0.00 98 989.3
20260510132505 60 38 1.0 1.0 0.00 0.00 0.00 98 989.2
20260510132004 59 13 0.0 1.0 0.00 0.00 0.00 98 989.3
20260510131504 59 30 0.0 1.0 0.00 0.00 0.00 98 989.3
20260510131005 58 37 0.0 2.0 0.00 0.00 0.00 98 989.2
20260510130505 58 59 0.0 2.0 0.00 0.00 0.00 98 989.3
20260510130004 57 99 0.0 2.0 0.00 0.00 0.00 98 989.2
20260510125504 57 80 0.0 1.0 0.00 0.00 0.00 98 989.2
20260510125004 57 91 0.0 1.0 0.00 0.00 0.00 98 989.1
20260510124005 56 68 0.0 1.0 0.00 0.00 0.00 97 988.9
20260510123505 56 256 0.0 1.0 0.00 0.00 0.00 97 988.9
20260510123005 55 107 0.0 1.0 0.00 0.00 0.00 97 988.8
20260510122505 55 118 0.0 1.0 0.00 0.00 0.00 97 988.8
20260510122005 55 112 0.0 1.0 0.00 0.00 0.00 97 988.7
20260510120505 55 98 0.0 1.0 0.00 0.00 0.00 97 988.6
20260510120005 55 100 0.0 1.0 0.00 0.00 0.00 97 988.5
20260510115505 55 137 0.0 1.0 0.00 0.00 0.00 97 988.5
20260510115006 55 132 0.0 1.0 0.00 0.00 0.00 97 988.4
20260510114504 55 96 0.0 1.0 0.00 0.00 0.00 97 988.3
20260510114006 54 108 0.0 1.0 0.00 0.00 0.00 97 988.2
20260510113005 54 103 0.0 0.0 0.00 0.00 0.00 97 988.0
20260510112505 54 98 0.0 1.0 0.00 0.00 0.00 97 988.0
20260510112005 54 128 0.0 1.0 0.00 0.00 0.00 97 987.9
20260510111505 54 164 0.0 1.0 0.00 0.00 0.00 97 987.9
20260510111005 54 148 0.0 1.0 0.00 0.00 0.00 96 987.8
20260510110505 54 154 0.0 1.0 0.00 0.00 0.00 96 987.7
20260510110005 53 135 0.0 1.0 0.00 0.00 0.00 96 987.6
20260510105505 53 160 1.0 2.0 0.00 0.00 0.00 96 987.6
20260510105005 53 163 0.0 1.0 0.00 0.00 0.00 96 987.5
20260510104505 54 203 0.0 1.0 0.00 0.00 0.00 96 987.5
20260510104006 53 181 0.0 1.0 0.00 0.00 0.00 96 987.4
20260510103505 53 132 0.0 1.0 0.00 0.00 0.00 96 987.4
20260510103006 53 153 0.0 1.0 0.00 0.00 0.00 96 987.4
20260510102504 53 157 0.0 1.0 0.00 0.00 0.00 96 987.5
20260510102004 53 153 0.0 0.0 0.00 0.00 0.00 96 987.5
20260510101505 54 215 0.0 1.0 0.00 0.00 0.00 96 987.4
20260510101005 54 192 0.0 1.0 0.00 0.00 0.00 96 987.3
20260510100505 54 153 0.0 0.0 0.00 0.00 0.00 96 987.3
20260510095005 54 187 0.0 0.0 0.00 0.00 0.00 96 986.9
20260510094504 54 187 0.0 0.0 0.00 0.00 0.00 96 986.9
20260510094005 54 150 0.0 1.0 0.00 0.00 0.00 96 986.9
20260510093505 54 178 0.0 0.0 0.00 0.00 0.00 96 987.0
20260510093005 54 208 0.0 1.0 0.00 0.00 0.00 95 986.9
20260510092505 54 177 0.0 0.0 0.00 0.00 0.00 95 986.8
20260510092005 54 150 0.0 1.0 0.00 0.00 0.00 95 986.8
20260510091005 54 132 0.0 0.0 0.00 0.00 0.00 95 986.7
20260510090504 54 171 0.0 1.0 0.00 0.00 0.00 95 986.7
20260510090005 54 235 0.0 1.0 0.00 0.00 0.00 95 986.8
20260510085505 54 151 0.0 0.0 0.00 0.00 0.00 95 986.8
20260510085004 54 157 0.0 0.0 0.00 0.00 0.00 95 986.7
20260510084504 54 115 0.0 1.0 0.00 0.00 0.00 95 986.7
20260510084004 54 211 0.0 1.0 0.00 0.00 0.00 95 986.7
20260510083004 54 112 0.0 1.0 0.00 0.00 0.00 95 986.8
20260510082505 55 249 0.0 1.0 0.00 0.00 0.00 95 986.7
20260510082004 55 218 0.0 0.0 0.00 0.00 0.00 94 986.7
20260510081006 55 218 0.0 0.0 0.00 0.00 0.00 94 986.6
20260510080504 55 218 0.0 1.0 0.00 0.00 0.00 94 986.5
20260510080005 55 268 0.0 0.0 0.00 0.00 0.00 94 986.4
20260510075504 55 268 0.0 0.0 0.00 0.00 0.00 94 986.3
20260510074004 55 294 0.0 0.0 0.00 0.00 0.00 94 986.2
20260510073504 56 285 0.0 0.0 0.00 0.00 0.00 94 986.1
20260510072004 56 233 0.0 0.0 0.00 0.00 0.00 94 986.2
20260510071505 56 150 0.0 0.0 0.00 0.00 0.00 94 986.2
20260510070504 56 222 0.0 1.0 0.00 0.00 0.00 93 986.1
20260510070004 56 118 0.0 0.0 0.00 0.00 0.00 93 986.1
20260510065004 56 330 0.0 0.0 0.00 0.00 0.00 93 986.1
20260510064005 56 207 0.0 0.0 0.00 0.00 0.00 93 986.2
20260510063504 57 207 0.0 0.0 0.00 0.00 0.00 92 986.2
20260510062504 57 200 0.0 1.0 0.00 0.00 0.00 92 986.2
20260510062005 57 335 0.0 1.0 0.00 0.00 0.00 92 986.2
20260510061505 57 305 0.0 0.0 0.00 0.00 0.00 92 986.2
20260510061004 57 289 0.0 0.0 0.00 0.00 0.00 92 986.1
20260510060005 57 61 0.0 1.0 0.00 0.00 0.00 91 986.1
20260510055004 56 221 0.0 1.0 0.00 0.00 0.00 91 986.1
20260510054504 56 132 0.0 1.0 0.00 0.00 0.00 91 986.0
20260510054004 56 122 0.0 1.0 0.00 0.00 0.00 91 986.0
20260510053504 56 19 0.0 1.0 0.00 0.00 0.00 91 986.1
20260510052504 56 135 0.0 1.0 0.00 0.00 0.00 90 986.1
20260510052005 56 128 0.0 1.0 0.00 0.00 0.00 90 986.1
20260510051504 56 124 0.0 1.0 0.00 0.00 0.00 90 986.1
20260510051004 56 127 0.0 1.0 0.00 0.00 0.00 90 986.2
20260510050504 56 140 0.0 1.0 0.00 0.00 0.00 90 986.2
20260510045504 57 130 0.0 1.0 0.00 0.00 0.00 89 986.1
20260510045005 57 161 0.0 1.0 0.00 0.00 0.00 89 986.1
20260510044504 57 149 0.0 1.0 0.00 0.00 0.00 89 986.0
20260510044004 57 168 0.0 0.0 0.00 0.00 0.00 89 986.0
20260510043504 57 168 0.0 0.0 0.00 0.00 0.00 89 986.0
20260510042504 58 303 0.0 0.0 0.00 0.00 0.00 88 986.0
20260510042004 58 151 0.0 1.0 0.00 0.00 0.00 88 986.0
20260510041505 58 148 0.0 1.0 0.00 0.00 0.00 88 986.0
20260510041004 58 207 0.0 1.0 0.00 0.00 0.00 88 986.0
20260510040504 58 199 0.0 0.0 0.00 0.00 0.00 87 986.0
20260510040004 58 231 0.0 1.0 0.00 0.00 0.00 87 986.0
20260510035504 58 245 0.0 1.0 0.00 0.00 0.00 87 986.0
20260510035004 58 155 0.0 1.0 0.00 0.00 0.00 86 986.0
20260510034503 59 304 0.0 1.0 0.00 0.00 0.00 86 985.9
20260510034004 59 272 0.0 1.0 0.00 0.00 0.00 86 986.0
20260510033505 59 235 0.0 1.0 0.00 0.00 0.00 86 986.0
20260510031505 59 144 0.0 2.0 0.00 0.00 0.00 85 985.9
20260510030504 60 220 0.0 2.0 0.00 0.00 0.00 84 985.9
20260510024505 60 297 0.0 1.0 0.00 0.00 0.00 83 985.7
20260510024004 61 242 0.0 1.0 0.00 0.00 0.00 83 985.6
20260510023505 61 165 0.0 1.0 0.00 0.00 0.00 82 985.5
20260510023005 61 137 0.0 1.0 0.00 0.00 0.00 82 985.5
20260510022505 61 161 0.0 0.0 0.00 0.00 0.00 82 985.4
20260510022005 62 7 0.0 1.0 0.00 0.00 0.00 81 985.3
20260510021506 62 280 0.0 1.0 0.00 0.00 0.00 81 985.3
20260510021006 62 154 0.0 0.0 0.00 0.00 0.00 81 985.2
20260510020005 62 228 0.0 1.0 0.00 0.00 0.00 80 985.1
20260510015505 63 32 0.0 1.0 0.00 0.00 0.00 80 985.0
20260510015004 63 224 0.0 1.0 0.00 0.00 0.00 80 984.9
20260510013504 65 122 0.0 1.0 0.00 0.00 0.00 78 984.7
20260510012005 66 339 1.0 2.0 0.00 0.00 0.00 76 984.6
20260510011005 67 344 1.0 3.0 0.00 0.00 0.00 76 984.4
20260510010505 67 319 1.0 2.0 0.00 0.00 0.00 75 984.4
20260510004505 70 282 0.0 1.0 0.00 0.00 0.00 71 984.1
20260510004005 70 297 0.0 1.0 0.00 0.00 0.00 69 984.0
20260510003504 71 299 0.0 1.0 0.00 0.00 0.00 68 984.0
20260510002504 72 338 1.0 1.0 0.00 0.00 0.00 64 984.0
20260510002004 72 1 0.0 1.0 0.00 0.00 0.00 64 983.9
20260510001004 73 326 1.0 2.0 0.00 0.00 0.00 61 983.9
20260510000505 73 357 0.0 1.0 0.00 0.00 0.00 61 984.0
20260510000005 74 0 1.0 1.0 0.00 0.00 0.00 59 983.9
20260509235504 74 2 0.0 1.0 0.00 0.00 0.00 57 983.9
20260509235005 75 348 0.0 1.0 0.00 0.00 0.00 57 984.0
20260509234505 76 26 1.0 1.0 0.00 0.00 0.00 57 983.9
20260509234005 76 26 0.0 2.0 0.00 0.00 0.00 57 983.8
20260509233506 76 306 1.0 2.0 0.00 0.00 0.00 50 983.7
20260509232004 76 325 1.0 2.0 0.00 0.00 0.00 49 983.7
20260509231504 76 293 1.0 5.0 0.00 0.00 0.00 50 983.6
20260509230506 77 324 1.0 3.0 0.00 0.00 0.00 52 983.6
20260509230005 77 305 1.0 2.0 0.00 0.00 0.00 48 983.5
20260509225505 77 261 0.0 3.0 0.00 0.00 0.00 48 983.5
20260509225005 77 232 1.0 3.0 0.00 0.00 0.00 47 983.5
20260509224505 77 344 1.0 3.0 0.00 0.00 0.00 49 983.5
20260509224005 77 341 0.0 1.0 0.00 0.00 0.00 57 983.4
20260509223005 77 220 1.0 5.0 0.00 0.00 0.00 48 983.3
20260509222505 77 301 1.0 6.0 0.00 0.00 0.00 49 983.2
20260509221504 77 344 1.0 3.0 0.00 0.00 0.00 47 983.2
20260509221005 77 321 2.0 3.0 0.00 0.00 0.00 46 983.3
20260509220504 77 342 1.0 3.0 0.00 0.00 0.00 47 983.3
20260509220004 77 288 1.0 2.0 0.00 0.00 0.00 48 983.4
20260509215505 77 291 2.0 5.0 0.00 0.00 0.00 46 983.3
20260509215005 78 329 2.0 5.0 0.00 0.00 0.00 49 983.3
20260509214505 77 28 1.0 2.0 0.00 0.00 0.00 53 983.3
20260509213505 77 311 2.0 5.0 0.00 0.00 0.00 49 983.4
20260509212505 77 276 1.0 3.0 0.00 0.00 0.00 51 983.3
20260509212004 77 172 2.0 3.0 0.00 0.00 0.00 50 983.4
20260509211504 76 330 1.0 3.0 0.00 0.00 0.00 52 983.3
20260509211005 76 300 1.0 5.0 0.00 0.00 0.00 57 983.3
20260509210504 76 258 0.0 1.0 0.00 0.00 0.00 58 983.3
20260509205005 77 215 1.0 2.0 0.00 0.00 0.00 55 983.4
20260509204505 78 266 1.0 3.0 0.00 0.00 0.00 55 983.4